THORAD AGENA D DEB

Satellite information

Favourite Embed

Satellite Type and Status

DEBRISIN ORBIT

Key statistics

Satellite THORAD AGENA D DEB at a glance.

Uptime

20177

Days in orbit

Revolutions

≈ 13.7

Per day

Orbit

SSO

Sun Synchronous Orbit

Inclination

100.0

Latest

Satellite identification and parameters

Extended collection of information and parameters for THORAD AGENA D DEB.

Object identification

Identified? True

Debris? True

Object name: THORAD AGENA D DEB

International designator: 1970-025GA

Object number (NORAD): 4934

Object ID (CCSDS): 4934

Country: UNITED STATES OF AMERICA (US)

Current information (Y/N): Y

RCS size: SMALL

Orbital parameters

Period: 104.734 minutes

Inclination: 99.999 deg

SMA: 7360.128 km

Apoapsis: 985.707 km

Periapsis: 978.28 km

RAAN: 287.8613 deg

Eccentricy: 0.0005045

Argument of periapsis: 14.3556 deg

Mean anomaly: 112.9523 deg

Mean motion: 13.7491129 rev/day

Mean motion (dot): 0.00000298 rev/day2

B* drag term: 0.0003636 1/REarth

Two-line elements (TLE)

Creation date: July 3, 2025, 3:40 a.m.

Reference frame: TEME

Reference center: EARTH

Epoch: July 2, 2025, 7:19 p.m. UTC

TLE line 0: 0 THORAD AGENA D DEB

TLE line 1: 1 04934U 70025GA 25183.80553162 .00000298 00000-0 36360-3 0 9993

TLE line 2: 2 04934 99.9990 287.8613 0005045 14.3556 112.9523 13.74911290748357

Live tracking on map

Real-time ground track for satellite THORAD AGENA D DEB.

In-orbit conjunctions

A list of the most updated potential collisions computed for object THORAD AGENA D DEB.

Target Orbit TCA Probability of collision Miss distance Type
SL-8 R/B LEO 2025-04-21 02:26:57 0.0003017739 537.0 (m) ROCKET BODY
COSMOS 422 LEO 2024-08-06 12:15:19 0.03005916 10.0 (m) PAYLOAD

Associated space launch

Meteorological research and development satellite

THORAD AGENA D DEB was lifted into orbit during the mission ‘Thorad SLV-2G Agena D | Nimbus 4’, on board a Thorad SLV-2G Agena D space rocket.

The launch took place on April 8, 1970, 8:17 a.m. from Space Launch Complex 2E.

For more information about the launch, click the button.

Launch to space Thorad SLV-2G Agena D | Nimbus 4
Thorad SLV-2G Agena D | Nimbus 4

Agency: N/A

Status: Launch Successful

Launch date: April 8, 1970, 8:17 a.m. UTC

Rocket: Thorad SLV-2G Agena D

Launch pad: Space Launch Complex 2E

Location: Vandenberg SFB, CA, USA

...

Latest news about this satellite

There are no fresh news available about this satellite. Check back as we update our databases every day.


Newsletter sign-up

Weekly statistics, charts and insights to help you stay on top of the space industry.